Regional Weather Roundup
Issued by NWS

Home | Current Version | Previous Version | Graphics & Text | Print | Product List | Glossary Off
Versions: 1 2 3 4 5 6 7 8 9 10 11 12 13 14 15 16 17 18 19 20 21 22 23 24 25 26 27 28 29 30 31 32 33 34 35 36 37 38 39 40 41 42 43 44 45 46 47 48 49 50

000
ASUS43 KMKX 271621
RWRWI

WISCONSIN REGIONAL WEATHER ROUNDUP
NATIONAL WEATHER SERVICE MILWAUKEE/SULLIVAN WI
1000 AM CST THU NOV 27 2014

NOTE: "FAIR" INDICATES FEW OR NO CLOUDS BELOW 12,000 FEET WITH NO
SIGNIFICANT WEATHER AND/OR OBSTRUCTIONS TO VISIBILITY.

WIZ001-002-006>008-014>016-023>028-271700-
NORTHWEST WISCONSIN

CITY           SKY/WX    TMP DP  RH WIND       PRES   REMARKS
SUPERIOR ARPT  SUNNY      1  -8  67 W6        30.51S WCI -11
ASHLAND        MOSUNNY    6   0  76 SW5       30.46S WCI  -3
HAYWARD        SUNNY      0  -6  76 NW5       30.43S WCI -10
SIREN          SUNNY      1  -8  68 NW3       30.49S
CUMBERLAND     SUNNY      1  -8  66 N7        30.43S WCI -11
RICE LAKE      SUNNY      1  -6  71 NW6       30.47S WCI -10
CHETEK         SUNNY      2  -5  72 NW3       30.46S
LADYSMITH      SUNNY      2  -3  77 NW8       30.43S WCI -11
EAU CLAIRE     SUNNY      3  -5  69 NW5       30.47R WCI  -6
MENOMONIE      SUNNY      3  -5  69 NW5       30.49R WCI  -6
NEW RICHMOND   SUNNY      2  -6  70 NW5       30.49R WCI  -8
OSCEOLA        SUNNY      2  -6  70 W3        30.54R
$$

WIZ003>005-009-010-017-018-271700-
NORTH CENTRAL WISCONSIN

CITY           SKY/WX    TMP DP  RH WIND       PRES   REMARKS
MANITOWISH WTR FLURRIES   4   0  82 NW6       30.32R WCI  -7
ARBOR VITAE    MOSUNNY    6   1  79 NW7       30.32R WCI  -5
WOODRUFF       MOSUNNY    6   1  79 NW7       30.32R WCI  -5
RHINELANDER    SUNNY      7   1  76 N7        30.31R WCI  -5
EAGLE RIVER    SUNNY      8   0  69 NW9G16    30.29S WCI  -6
LAND O LAKES   MOSUNNY    9   1  72 N9        30.30R WCI  -5
PHILLIPS       SUNNY      2  -3  77 NW3       30.36R
TOMAHAWK       SUNNY      7   1  75 CALM      30.35R
MEDFORD        SUNNY      4  -2  74 NW8       30.35R WCI  -9
MERRILL        SUNNY      9   1  71 N8        30.35R WCI  -4
$$

WIZ029-030-035-036-043>047-271700-
CENTRAL WISCONSIN

CITY           SKY/WX    TMP DP  RH WIND       PRES   REMARKS
WAUSAU         SUNNY      9   2  73 NW9       30.35R WCI  -4
MOSINEE        SUNNY     10   7  85 NW9       30.36R WCI  -2
MARSHFIELD     SUNNY      8   0  69 NW13      30.37R WCI  -8
STEVENS POINT  PTSUNNY   10   4  76 N9        30.37R WCI  -3
WAUPACA        MOSUNNY   17   8  66 NW10      30.38R WCI   5
WAUTOMA        CLOUDY    16   9  73 NW9       30.39R WCI   4
WISC RAPIDS    SUNNY     11   2  67 NW13      30.40R WCI  -4
CAMP DOUGLAS   MOSUNNY   10   5  79 NW14      30.42R WCI  -5
$$

WIZ011>013-019>022-031-037>040-048>050-271700-
NORTHEAST WISCONSIN

CITY           SKY/WX    TMP DP  RH WIND       PRES   REMARKS
ANTIGO         MOSUNNY    9   2  75 N12       30.31R WCI  -6
SHAWANO        SUNNY     17   6  62 N10       30.36S WCI   4
OCONTO         SUNNY     14   4  63 N12G20    30.36S WCI   1
STURGEON BAY   MOSUNNY   16   5  62 NW18G25   30.32S WCI  -1
GREEN BAY      CLOUDY    17   6  62 NW12      30.35R WCI   4
MANITOWOC      CLOUDY    18  10  73 N13       30.34R WCI   4
APPLETON       PTSUNNY   16  10  79 N12       30.34S WCI   3
CLINTONVILLE   SUNNY     16   7  67 N8        30.36R WCI   5
OSHKOSH        LGT SNOW  18  12  77 MISG      30.35R
$$

WIZ032>034-041-042-053>061-271700-
SOUTHWEST WISCONSIN

CITY           SKY/WX    TMP DP  RH WIND       PRES   REMARKS
LA CROSSE      SUNNY      9  -1  64 NW12      30.48R WCI  -6
SPARTA         SUNNY      8   1  70 NW8       30.46R WCI  -4
VIROQUA        SUNNY      9   2  73 NW9       30.39S WCI  -4
BOSCOBEL       SUNNY     17   5  59 N9        30.44R WCI   6
PRAIRIE DU CHI SUNNY     14   4  63 NW12      30.46R WCI   1
PLATTEVILLE    PTSUNNY   18  14  82 W8        30.39R WCI   8
$$

WIZ056-057-062-063-064-067-068-271700-
SOUTH CENTRAL WISCONSIN

CITY           SKY/WX    TMP DP  RH WIND       PRES   REMARKS
REEDSBURG      SUNNY     14   7  75 NW8       30.39S WCI   3
BARABOO/DELLS  MOSUNNY   15   8  75 NW10      30.38R WCI   2
LONE ROCK      MOSUNNY   21   8  57 NW10      30.42R WCI  10
MINERAL POINT  CLOUDY    21  14  73 NW10      30.37R WCI  10
MADISON        PTSUNNY   20  12  71 NW9       30.37R WCI   9
MIDDLETON      MOSUNNY   21  12  68 NW10      30.37S WCI  10
WATERTOWN      CLOUDY    19  14  79 NW10G17   30.35R WCI   8
MONROE         FLURRIES  23  18  80 NW6       30.35R WCI  16
JANESVILLE     PTSUNNY   25  18  74 NW13G18   30.35  WCI  13
$$

WIZ051-052-058>065-066-070>072-271700-
SOUTHEAST WISCONSIN

CITY           SKY/WX    TMP DP  RH WIND       PRES   REMARKS
MILWAUKEE      CLOUDY    23  16  74 NW14      30.32R WCI  11
WAUKESHA       CLOUDY    18  12  79 NW17      30.34R WCI   2
MILWAUKEE/TIMM CLOUDY    23  16  74 NW14      30.33R WCI  11
RACINE         CLOUDY    23  16  74 NW14G21   30.34R WCI  11
BURLINGTON     CLOUDY    19  14  82 NW15      30.34R WCI   5
KENOSHA        CLOUDY    23  17  78 NW17      30.33R WCI   9
FOND DU LAC    LGT SNOW  18  13  80 NW14      30.35R WCI   4
SHEBOYGAN      CLOUDY    19  11  70 N13       30.33R WCI   6
WEST BEND      CLOUDY    21  16  79 NW10      30.33R WCI  10
JUNEAU         LGT SNOW  17  12  81 NW9G18    30.36R WCI   6
$$

LSZ147-162-271700-
LAKE SUPERIOR

STATION/POSITION TIME  TEMP    WIND        PRES    WAVE
                       AIR SEA DIR/SP/G            HT/PER
                 (UTC) (F)     (DEG/KT/KT) (MB)    (FT/S)
DEVILS ISLAND    1600    9     330/ 11/ 13 1032.9R
PORT WING        1500    7     330/ 12/ 14 1031.8
SAXON HARBOR     1500   12     320/ 11/ 16 1030.1R
$$

LMZ867-665-643>646-271700-
LAKE MICHIGAN

STATION/POSITION TIME  TEMP    WIND        PRES    WAVE
                       AIR SEA DIR/SP/G            HT/PER
                 (UTC) (F)     (DEG/KT/KT) (MB)    (FT/S)
CHAMBERS ISLAND  1500   16     310/ 20/ 28 1026.4S
N MID LAKE BUOY  1550   20 42  320/ 19/ 25 1026.3R   5/ 5
NORTHPORT PIER   1608   19     330/ 19     1026.4R
SISTER BAY       1443           10/ 29/ 35   N/A
KEWAUNEE LAKESHO 1600   16     340/ 13/ 17 1026.3R
SHEBOYGAN LAKESH 1600   18 35  330/ 17/ 21 1028.6R
PORT WASHINGTON  1500   24     320/  8/ 12 1027.1
MILWAUKEE LAKESH 1600   23     310/ 10/ 13   N/A
S MID LAKE BUOY  1550   31 42  310/ 21/ 25 1025.4R   5/ 6
KENOSHA   LAKESH 1600   22     300/ 11/ 19 1026.8R
$$

TC  - TEMPERATURE IN CELSIUS
VSB - VISIBILITY IN STATUTE MILES
WCI - WIND CHILL INDEX
HX  - HEAT INDEX




USA.gov is the U.S. government's official web portal to all federal, state and local government web resources and services.